Regional Weather Roundup
Issued by NWS

Home | Current Version | Previous Version | Graphics & Text | Print | Product List | Glossary On
Versions: 1 2 3 4 5 6 7 8 9 10 11 12 13 14 15 16 17 18 19 20 21 22 23 24 25 26 27 28 29 30 31 32 33 34 35 36 37 38 39 40 41 42 43 44 45 46 47 48 49 50
000
ASUS45 KTFX 231219
RWRMT
MONTANA HOURLY WEATHER ROUNDUP
NATIONAL WEATHER SERVICE GREAT FALLS MT
619 AM MDT SAT AUG 23 2014

NOTE: "FAIR" INDICATES FEW OR NO CLOUDS BELOW 12000 FEET WITH NO
SIGNIFICANT WEATHER AND/OR OBSTRUCTIONS TO VISIBILITY.

* THESE STATIONS ARE NOT UNDER NWS QUALITY CONTROL. THEY DO NOT
   REPORT WEATHER SUCH AS PRECIPITATION OR FOG.

MTZ001>007-043-231300-
WEST OF THE DIVIDE
CITY           SKY/WX    TMP DP  RH WIND       PRES   REMARKS
KALISPELL      CLOUDY    54  39  57 N5        30.17S
MISSOULA       LGT RAIN  54  43  67 NW9       30.12S
BUTTE          LGT RAIN  45  43  93 NW13      30.09F
MULLAN PASS    CLOUDY    41  37  86 VRB5      30.18S
* ESSEX        N/A       49  42  77 S4         N/A
* LINCOLN      N/A       46  44  93 NE3        N/A
* LOOKOUT PASS N/A       48  39  71 N/A        N/A
* POLSON       N/A       50  41  71 N2         N/A
* RONAN APT    CLOUDY    54  45  72 N/A        N/A
* SEELEY LAKE  N/A       47  45  93 S1         N/A
* THOMP F APT  CLOUDY    46  44  93 N6         N/A
$$

MTZ008-052>055-231300-
SOUTHWEST MONTANA
CITY           SKY/WX    TMP DP  RH WIND       PRES   REMARKS
BOZEMAN        LGT RAIN  48  46  93 W12       30.01F
DILLON         LGT RAIN  46  45  96 NE10      30.05R
W YELLOWSTONE  CLOUDY    46  45  96 SW3       30.05S
* THREE FORKS  CLOUDY    50  34  54 N/A        N/A
* BOULDER HILL N/A       41  38  89 N16G22     N/A
* MONIDA PASS  N/A       44  44 100 W7         N/A
* RAYNOLDS PAS N/A       45  43  93 NW8        N/A
* WHITEHALL    N/A       48  44  86 NE10G18    N/A
* WISE RIVER   N/A       45  42  89 S5         N/A
$$

MTZ009>010-012-014-046-048-049-054-231300-
EAST SLOPES AND CENTRAL MONTANA
CITY           SKY/WX    TMP DP  RH WIND       PRES   REMARKS
CUT BANK       RAIN      45  45 100 N21       30.21S
GREAT FALLS    RAIN      48  48 100 NW16      30.08S VSB 3
HELENA         LGT RAIN  48  45  89 NW12      30.11S
MALMSTROM AFB  RAIN      52  52 100 NE18      30.09S
* CONRAD       CLOUDY    46  46 100 NW14G21    N/A
* DEARBORN     N/A       48  46  93 NE4        N/A
* EAST GLACIER N/A       41  40  96 NE14G24    N/A
* MONARCH      N/A       44  41  89 NW7        N/A
* PENDROY      N/A       43  43 100 N20G29     N/A
* ROGERS PASS  N/A       42  41  96 E4G14      N/A
* SAINT MARY   N/A       42  41  96 NE6G16     N/A
* SWEET GRASS  N/A       45  45 100 N16G25     N/A
* WHITE SULPH  N/A       44  43  96 NW9G14     N/A
$$

MTZ011-013-016-021-035-040-045-047-050-051-231300-
NORTH CENTRAL MONTANA
CITY           SKY/WX    TMP DP  RH WIND       PRES   REMARKS
HAVRE          LGT RAIN  55  54  96 NE15      30.10S
LEWISTOWN      RAIN      54  52  93 N9        30.00F
* FORT BENTON  CLOUDY    55  54  96 N15       30.08S VSB 3
* CHESTER      N/A       52  50  93 NE11G21    N/A
* DENTON       N/A       54  52  93 VRB9G14    N/A
* GEYSER       N/A       48  47  96 W12        N/A
* JUDITH GAP   N/A       50  50 100 NW20G27    N/A
$$

MTZ017>020-022>027-061-062-231300-
NORTHEAST MONTANA
CITY           SKY/WX    TMP DP  RH WIND       PRES   REMARKS
GLASGOW        RAIN      55  54  96 NE22G30   30.03R
GLENDIVE       CLOUDY    59  59 100 E20G25    29.99R
JORDAN         CLOUDY    57  55  93 NE20G29   29.96F
SIDNEY         CLOUDY    57  57 100 NE16      30.04R
WOLF POINT     RAIN      57  54  90 NE24G33   30.02S
* BEAVER HILL  N/A       59  58  97 NE17       N/A
* CIRCLE       N/A       58  57  96 NE14       N/A
* LINDSAY DVD  N/A       57  57 100 NE14G24    N/A
* SACO         N/A       56  55  96 N11G17     N/A
$$

MTZ028>042-056>058-231300-
SOUTHCENTRAL AND SOUTHEAST MONTANA
CITY           SKY/WX    TMP DP  RH WIND       PRES   REMARKS
BAKER          HVY RAIN  63  61  93 E16       29.95F
BILLINGS       LGT RAIN  59  57  93 SW9       29.90F VSB 1
LIVINGSTON     RAIN      48  46  93 W9        30.01R
MILES CITY     LGT RAIN  63  61  93 NE7       29.91S
* LAUREL APT   CLOUDY    57  54  90 N/A        N/A
* ROUNDUP APT  CLOUDY    55  52  90 N10G21     N/A
* ALZADA       N/A       62  62 100 NE6        N/A
* HYSHAM       N/A       60  58  93 E8         N/A
* LAME DEER    N/A       56  55  96 E7         N/A
* REED POINT   N/A       54  53  96 W14G22     N/A
* ROSCOE HILL  N/A       50  47  89 W4G9       N/A
$$

REGIONAL REPORTS...DAKOTAS
CITY           SKY/WX    TMP DP  RH WIND       PRES   REMARKS
WILLISTON      CLOUDY    57  52  83 NE16      30.07F
DICKINSON      LGT RAIN  59  57  93 E20       30.00S
BEACH          LGT RAIN  59  59 100 E20G25    29.99S
CROSBY         CLOUDY    54  54 100 NE14G23   30.13F
TIOGA          CLOUDY    54  54 100 NE17G23   30.12S
WATFORD CITY   CLOUDY    57  54  90 E15G21    30.04R
BISMARCK       CLOUDY    63  57  81 NE16G21   30.03S
GRAND FORKS    CLOUDY    61  59  93 N13       30.05S
FARGO          FOG       64  64 100 NE7       30.01F VSB 3/4
BUFFALO SD     CLOUDY    63  63 100 E18G25    29.86F
RAPID CITY     LGT RAIN  64  61  90 CALM      29.91F
$$

REGIONAL REPORTS...WYOMING/IDAHO/WASHINGTON
CITY           SKY/WX    TMP DP  RH WIND       PRES   REMARKS
GILLETTE       CLOUDY    61  59  93 SE7       29.91F
SHERIDAN       CLOUDY    59  57  93 NW3       29.89F
CODY           CLOUDY    54  52  93 CALM      29.97S
YELLOWSTONE LA CLOUDY    43  41  93 CALM      30.11F
SALMON         CLOUDY    52  48  86 CALM      30.05S
MULLAN PASS    CLOUDY    41  37  86 VRB5      30.18S
SAND POINT     MOCLDY    55  41  59 NE15G20   30.15R
SPOKANE        FAIR      55  45  69 N5        30.12R
$$

REGIONAL REPORTS...ALBERTA
CITY           SKY/WX    TMP DP  RH WIND       PRES   REMARKS
CALGARY        FOG       45  43  93 S3        30.33R
LETHBRIDGE     LGT RAIN  46  45  96 N12       30.29R
MEDICINE HAT   CLOUDY    50  50 100 N10       30.23F
EDMONTON       FOG       30  28  92 NW2       30.35F
WATERTON GATE  N/A       43  41  93 N2         N/A
CARDSTON       N/A       43  43 100 NW8        N/A
MILK RIVER     N/A       46  45  96 N20        N/A
$$

REGIONAL REPORTS...SASKATCHEWAN
CITY           SKY/WX    TMP DP  RH WIND       PRES   REMARKS
SWIFT CURRENT  CLOUDY    52  52 100 NE12G24   30.20S
REGINA         CLOUDY    54  48  80 NE15      30.21S
VAL MARIE      N/A       54  52  93 NE13       N/A
ASSINIBOIA     N/A       52  48  86 E14G20     N/A
CORONACH       N/A       54  50  86 NE12G18    N/A

$$



USA.gov is the U.S. government's official web portal to all federal, state and local government web resources and services.